Hourly Data Report for October 06, 2013

All times are specified in Local Standard Time (LST). Add 1 hour to adjust for Daylight Saving Time where and when it is observed.

PENTICTON A
BRITISH COLUMBIA

49°27'45.000" N
119°36'08.000" W
344.40 m
1126146
71889
YYF

Download Data

Hourly Data (October 2013)
Hourly Data Report for October 6, 2013
Temp Definition
°C
Dew Point Temp Definition
°C
Rel Hum Definition
%
Wind Dir Definition
10's deg

Wind Spd Definition
km/h
Visibility Definition
km
Stn Press Definition
kPa
Hmdx Definition


Wind Chill Definition


Weather Definition


TIME
00:00 Legend Double Dagger 6.3 4.5 88 2 1 24.1 98.25     LegendNANA
01:00 Legend Double Dagger 9.1 5.1 76 3 4 24.1 98.22     Mostly Cloudy
02:00 Legend Double Dagger 8.3 5.1 80 4 6 24.1 98.19     LegendNANA
03:00 Legend Double Dagger 10.5 5.1 69 16 16 24.1 98.13     LegendNANA
04:00 Legend Double Dagger 9.2 4.6 73 3 4 24.1 98.11     Mainly Clear
05:00 Legend Double Dagger 9.9 4.7 70 17 15 24.1 98.08     LegendNANA
06:00 Legend Double Dagger 9.5 4.5 71 17 19 24.1 98.05     LegendNANA
07:00 Legend Double Dagger 9.1 4.2 71 19 21 24.1 98.05     Mostly Cloudy
08:00 Legend Double Dagger 10.5 4.2 65 18 18 24.1 98.02     LegendNANA
09:00 Legend Double Dagger 12.9 3.6 53 16 18 24.1 97.96     LegendNANA
10:00 Legend Double Dagger 13.9 4.3 52 15 25 24.1 97.88     Mainly Clear
11:00 Legend Double Dagger 15.7 4.2 46 15 24 24.1 97.78     LegendNANA
12:00 Legend Double Dagger 17.5 4.2 41 16 26 24.1 97.63     LegendNANA
13:00 Legend Double Dagger 19.0 5.2 40 16 20 24.1 97.53     Mostly Cloudy
14:00 Legend Double Dagger 18.6 4.9 40 16 22 24.1 97.44     LegendNANA
15:00 Legend Double Dagger 19.0 4.5 38 17 27 24.1 97.34     LegendNANA
16:00 Legend Double Dagger 18.5 3.7 37 19 32 24.1 97.24     Mainly Clear
17:00 Legend Double Dagger 17.3 3.3 39 18 30 24.1 97.11     LegendNANA
18:00 Legend Double Dagger 17.0 2.7 38 19 37 24.1 97.10     LegendNANA
19:00 Legend Double Dagger 16.6 2.7 39 19 24 24.1 97.04     Mainly Clear
20:00 Legend Double Dagger 15.3 5.0 50 15 14 24.1 97.04     LegendNANA
21:00 Legend Double Dagger 14.2 4.3 51 13 10 24.1 97.00     LegendNANA
22:00 Legend Double Dagger 14.1 5.0 54 14 16 24.1 96.97     Mainly Clear
23:00 Legend Double Dagger 13.9 4.8 54 15 13 24.1 96.90     LegendNANA

Notes on Data Quality.

Legend

  • E = Estimated
  • M = Missing
  • NA = Not Available
  • ‡ = Partner data that is not subject to review by the National Climate Archives
Date modified: